FDBNF25 OMDB-OERK

Flight info

Callsign FDBNF25
Flight time 1h 29m
Altitude 30000
Route SENPA N571 ALPOB L768 ULADA T136 OTISU N112 GETOT Q212 ASNUM
Aircraft B738/M-SDE2E3FGHIRWXY/LB1

Departure

Time 2026-04-22 15:45
Airport Dubai International Airport (OMDB)

Arrival

Time 2026-04-22 17:15
Airport King Khalid International Airport (OERK)
Time Latitude Longitude Altitude Speed Heading
2026-04-22 14:56 25.24420 55.37209 22 ft 0 kts 210°
2026-04-22 15:30 25.24445 55.37226 22 ft 3 kts 210°
2026-04-22 15:30 25.24462 55.37236 22 ft 3 kts 210°
2026-04-22 15:30 25.24478 55.37247 22 ft 3 kts 198°
2026-04-22 15:30 25.24497 55.37249 23 ft 3 kts 166°
2026-04-22 15:31 25.24505 55.37247 24 ft 0 kts 152°
2026-04-22 15:31 25.24519 55.37237 24 ft 3 kts 146°
2026-04-22 15:31 25.24535 55.37228 23 ft 3 kts 169°
2026-04-22 15:31 25.24542 55.37226 22 ft 0 kts 181°
2026-04-22 15:33 25.24531 55.37231 21 ft 2 kts 153°
2026-04-22 15:33 25.24521 55.37260 22 ft 7 kts 115°
2026-04-22 15:34 25.24520 55.37262 23 ft 0 kts 119°
2026-04-22 15:39 25.24519 55.37262 23 ft 0 kts 119°
2026-04-22 15:39 25.24506 55.37287 23 ft 7 kts 120°
2026-04-22 15:39 25.24472 55.37353 23 ft 14 kts 120°
2026-04-22 15:40 25.24413 55.37459 21 ft 16 kts 122°
2026-04-22 15:40 25.24354 55.37564 21 ft 16 kts 122°
2026-04-22 15:40 25.24294 55.37669 22 ft 17 kts 122°
2026-04-22 15:40 25.24290 55.37784 21 ft 18 kts 42°
2026-04-22 15:41 25.24360 55.37837 22 ft 0 kts 35°
2026-04-22 15:43 25.24407 55.37874 23 ft 25 kts 35°
2026-04-22 15:43 25.24567 55.37994 23 ft 27 kts 34°
2026-04-22 15:43 25.24643 55.38049 21 ft 0 kts 33°
2026-04-22 15:43 25.24650 55.38054 21 ft 0 kts 32°
2026-04-22 15:44 25.24678 55.38073 21 ft 13 kts 31°
2026-04-22 15:44 25.24770 55.38089 21 ft 7 kts 314°
2026-04-22 15:44 25.24780 55.38073 21 ft 0 kts 302°
2026-04-22 15:45 25.24963 55.37741 21 ft 94 kts 301°
2026-04-22 15:45 25.25445 55.36875 27 ft 168 kts 302°
2026-04-22 15:45 25.26104 55.35716 727 ft 185 kts 302°
2026-04-22 15:46 25.26830 55.34427 1443 ft 202 kts 301°
2026-04-22 15:46 25.27557 55.33098 2457 ft 206 kts 301°
2026-04-22 15:46 25.28300 55.31750 3204 ft 199 kts 301°
2026-04-22 15:46 25.29006 55.30479 3840 ft 191 kts 301°
2026-04-22 15:47 25.29594 55.29181 4200 ft 192 kts 282°
2026-04-22 15:47 25.29703 55.27735 4231 ft 185 kts 274°
2026-04-22 15:47 25.29806 55.26303 4250 ft 188 kts 275°
2026-04-22 15:47 25.29914 55.24858 4260 ft 192 kts 274°
2026-04-22 15:48 25.29993 55.23342 4288 ft 209 kts 273°
2026-04-22 15:48 25.30076 55.21621 4400 ft 235 kts 273°
2026-04-22 15:48 25.30163 55.19793 4842 ft 244 kts 273°
2026-04-22 15:48 25.30254 55.17903 5438 ft 247 kts 273°
2026-04-22 15:49 25.30347 55.15981 6131 ft 251 kts 273°
2026-04-22 15:49 25.30440 55.14056 6960 ft 251 kts 273°
2026-04-22 15:49 25.30533 55.12150 7716 ft 253 kts 273°
2026-04-22 15:49 25.30630 55.10150 8197 ft 269 kts 273°
2026-04-22 15:50 25.30734 55.08028 8734 ft 280 kts 273°
2026-04-22 15:50 25.30838 55.05885 9440 ft 283 kts 273°
2026-04-22 15:50 25.30945 55.03695 10198 ft 286 kts 273°
2026-04-22 15:50 25.31052 55.01489 10730 ft 298 kts 273°
2026-04-22 15:51 25.31168 54.99096 10908 ft 321 kts 273°
2026-04-22 15:51 25.31291 54.96536 11089 ft 343 kts 273°
2026-04-22 15:51 25.31420 54.93856 11252 ft 364 kts 273°
2026-04-22 15:51 25.31559 54.90956 11442 ft 382 kts 273°
2026-04-22 15:52 25.31700 54.88017 11905 ft 390 kts 273°
2026-04-22 15:52 25.31843 54.84998 12533 ft 393 kts 273°
2026-04-22 15:52 25.31985 54.81996 13172 ft 395 kts 273°
2026-04-22 15:52 25.32130 54.78937 13777 ft 399 kts 273°
2026-04-22 15:53 25.32273 54.75886 14349 ft 402 kts 273°
2026-04-22 15:53 25.32418 54.72779 14919 ft 405 kts 273°
2026-04-22 15:53 25.32564 54.69647 15235 ft 409 kts 273°
2026-04-22 15:53 25.32708 54.66525 15234 ft 408 kts 273°
2026-04-22 15:54 25.32853 54.63384 15262 ft 408 kts 273°
2026-04-22 15:54 25.32998 54.60232 15264 ft 408 kts 273°
2026-04-22 15:54 25.33140 54.57128 15269 ft 409 kts 273°
2026-04-22 15:54 25.33332 54.53971 15264 ft 409 kts 277°
2026-04-22 15:55 25.33917 54.50930 15265 ft 409 kts 286°
2026-04-22 15:55 25.34746 54.47908 15267 ft 409 kts 286°
2026-04-22 15:55 25.35515 54.44900 15285 ft 412 kts 285°
2026-04-22 15:55 25.36277 54.41800 15730 ft 416 kts 285°
2026-04-22 15:56 25.37022 54.38748 16412 ft 415 kts 285°
2026-04-22 15:56 25.37779 54.35654 16981 ft 417 kts 285°
2026-04-22 15:56 25.38542 54.32547 17462 ft 420 kts 285°
2026-04-22 15:56 25.39319 54.29401 17934 ft 424 kts 285°
2026-04-22 15:57 25.40093 54.26278 18408 ft 427 kts 285°
2026-04-22 15:57 25.40882 54.23098 18881 ft 430 kts 285°
2026-04-22 15:57 25.41678 54.19888 19337 ft 433 kts 285°
2026-04-22 15:57 25.42471 54.16693 19774 ft 435 kts 285°
2026-04-22 15:58 25.43278 54.13436 20206 ft 438 kts 285°
2026-04-22 15:58 25.44088 54.10161 20626 ft 441 kts 285°
2026-04-22 15:58 25.44894 54.06903 21028 ft 444 kts 285°
2026-04-22 15:58 25.45704 54.03623 21413 ft 446 kts 285°
2026-04-22 15:59 25.46529 54.00279 21795 ft 449 kts 285°
2026-04-22 15:59 25.47346 53.96962 22157 ft 451 kts 285°
2026-04-22 15:59 25.48181 53.93568 22516 ft 454 kts 285°
2026-04-22 15:59 25.49003 53.90225 22857 ft 456 kts 285°
2026-04-22 16:00 25.49561 53.87957 23082 ft 457 kts 285°
2026-04-22 16:00 25.50673 53.83426 23516 ft 460 kts 285°
2026-04-22 16:00 25.51517 53.79981 23834 ft 463 kts 285°
2026-04-22 16:00 25.52362 53.76527 24143 ft 465 kts 285°
2026-04-22 16:01 25.53212 53.73051 24444 ft 467 kts 285°
2026-04-22 16:01 25.54055 53.69603 24735 ft 469 kts 285°
2026-04-22 16:01 25.54623 53.67277 24926 ft 470 kts 285°
2026-04-22 16:01 25.55760 53.62611 25298 ft 473 kts 285°
2026-04-22 16:02 25.56340 53.60231 25484 ft 474 kts 285°
2026-04-22 16:02 25.57192 53.56728 25740 ft 476 kts 285°
2026-04-22 16:02 25.58056 53.53170 26009 ft 477 kts 285°
2026-04-22 16:02 25.58920 53.49614 26356 ft 477 kts 285°
2026-04-22 16:03 25.59781 53.46060 26757 ft 475 kts 285°
2026-04-22 16:03 25.60625 53.42575 27137 ft 473 kts 285°
2026-04-22 16:03 25.61482 53.39034 27460 ft 473 kts 285°
2026-04-22 16:03 25.62334 53.35506 27792 ft 473 kts 285°
2026-04-22 16:04 25.62793 53.33606 27979 ft 473 kts 285°
2026-04-22 16:04 25.63150 53.32124 28128 ft 472 kts 285°
2026-04-22 16:04 25.64002 53.28592 28487 ft 471 kts 285°
2026-04-22 16:04 25.64837 53.25124 28827 ft 470 kts 285°
2026-04-22 16:05 25.65686 53.21594 29153 ft 470 kts 285°
2026-04-22 16:05 25.66518 53.18131 29466 ft 469 kts 285°
2026-04-22 16:05 25.67359 53.14625 29808 ft 469 kts 285°
2026-04-22 16:05 25.68190 53.11161 30016 ft 471 kts 285°
2026-04-22 16:06 25.69877 53.04115 29998 ft 472 kts 285°
2026-04-22 16:06 25.72301 52.97380 30018 ft 467 kts 297°
2026-04-22 16:07 25.75381 52.91047 30005 ft 467 kts 298°
2026-04-22 16:07 25.78447 52.84699 29999 ft 467 kts 297°
2026-04-22 16:08 25.81471 52.78314 30000 ft 468 kts 297°
2026-04-22 16:08 25.84476 52.71928 30015 ft 468 kts 297°
2026-04-22 16:09 25.87484 52.65530 30001 ft 468 kts 297°
2026-04-22 16:09 25.90480 52.59135 30001 ft 468 kts 297°
2026-04-22 16:10 25.93361 52.52655 30013 ft 469 kts 296°
2026-04-22 16:10 25.96224 52.46142 30001 ft 469 kts 296°
2026-04-22 16:11 25.99106 52.39636 30001 ft 469 kts 296°
2026-04-22 16:11 26.02003 52.33129 30002 ft 469 kts 296°
2026-04-22 16:12 26.04891 52.26642 30001 ft 469 kts 296°
2026-04-22 16:12 26.07784 52.20130 30002 ft 469 kts 296°
2026-04-22 16:13 26.10664 52.13633 30002 ft 469 kts 296°
2026-04-22 16:13 26.13547 52.07117 30001 ft 469 kts 296°
2026-04-22 16:14 26.16420 52.00617 30001 ft 469 kts 296°
2026-04-22 16:14 26.19325 51.94138 30000 ft 469 kts 297°
2026-04-22 16:15 26.22226 51.87646 30002 ft 469 kts 296°
2026-04-22 16:15 26.25097 51.81137 30000 ft 469 kts 296°
2026-04-22 16:16 26.27998 51.74624 30001 ft 469 kts 296°
2026-04-22 16:16 26.30903 51.68120 30002 ft 469 kts 296°
2026-04-22 16:17 26.33795 51.61621 30001 ft 469 kts 296°
2026-04-22 16:17 26.36689 51.55108 30001 ft 469 kts 296°
2026-04-22 16:18 26.39256 51.48450 30014 ft 468 kts 289°
2026-04-22 16:18 26.41326 51.41577 29998 ft 469 kts 289°
2026-04-22 16:19 26.43501 51.34699 30003 ft 469 kts 290°
2026-04-22 16:19 26.45735 51.27915 30001 ft 469 kts 290°
2026-04-22 16:20 26.47957 51.21030 30000 ft 469 kts 289°
2026-04-22 16:20 26.50118 51.14201 30000 ft 469 kts 289°
2026-04-22 16:21 26.52287 51.07349 30002 ft 469 kts 289°
2026-04-22 16:21 26.54468 51.00460 30001 ft 469 kts 289°
2026-04-22 16:22 26.57713 50.90187 30002 ft 469 kts 289°
2026-04-22 16:23 26.60882 50.79853 30001 ft 469 kts 289°
2026-04-22 16:23 26.62990 50.72958 29965 ft 464 kts 289°
2026-04-22 16:24 26.64025 50.69576 29497 ft 456 kts 289°
2026-04-22 16:24 26.66044 50.62858 27730 ft 462 kts 288°
2026-04-22 16:24 26.67065 50.59410 26665 ft 468 kts 288°
2026-04-22 16:25 26.68096 50.55927 25598 ft 473 kts 288°
2026-04-22 16:25 26.69452 50.48841 24381 ft 465 kts 271°
2026-04-22 16:25 26.69325 50.45194 24276 ft 469 kts 263°
2026-04-22 16:26 26.68722 50.41606 24139 ft 467 kts 256°
2026-04-22 16:26 26.67943 50.38125 24033 ft 463 kts 256°
2026-04-22 16:26 26.67136 50.34647 24006 ft 462 kts 255°
2026-04-22 16:26 26.66330 50.31180 24002 ft 462 kts 255°
2026-04-22 16:27 26.65524 50.27672 23996 ft 463 kts 256°
2026-04-22 16:27 26.64743 50.24225 23996 ft 463 kts 256°
2026-04-22 16:27 26.63957 50.20718 23997 ft 463 kts 256°
2026-04-22 16:27 26.63178 50.17219 23999 ft 463 kts 256°
2026-04-22 16:28 26.62402 50.13721 24001 ft 463 kts 256°
2026-04-22 16:28 26.61635 50.10265 24001 ft 463 kts 256°
2026-04-22 16:28 26.60854 50.06746 24001 ft 463 kts 256°
2026-04-22 16:28 26.60087 50.03297 24001 ft 463 kts 256°
2026-04-22 16:29 26.59305 49.99788 24001 ft 463 kts 256°
2026-04-22 16:29 26.58531 49.96320 24001 ft 463 kts 256°
2026-04-22 16:29 26.57750 49.92825 24001 ft 463 kts 256°
2026-04-22 16:29 26.56973 49.89354 24001 ft 463 kts 256°
2026-04-22 16:30 26.56454 49.87034 24001 ft 463 kts 256°
2026-04-22 16:30 26.55413 49.82397 24001 ft 463 kts 256°
2026-04-22 16:30 26.54628 49.78903 24001 ft 463 kts 256°
2026-04-22 16:30 26.53838 49.75389 24001 ft 463 kts 256°
2026-04-22 16:31 26.53058 49.71926 24001 ft 463 kts 256°
2026-04-22 16:31 26.52278 49.68464 24004 ft 465 kts 256°
2026-04-22 16:31 26.51480 49.64928 24014 ft 473 kts 256°
2026-04-22 16:31 26.50674 49.61361 23998 ft 472 kts 256°
2026-04-22 16:32 26.49874 49.57827 23989 ft 467 kts 256°
2026-04-22 16:32 26.49088 49.54359 23994 ft 463 kts 256°
2026-04-22 16:32 26.48290 49.50840 24001 ft 463 kts 256°
2026-04-22 16:32 26.47506 49.47390 24004 ft 463 kts 256°
2026-04-22 16:33 26.46711 49.43893 24003 ft 464 kts 256°
2026-04-22 16:33 26.45921 49.40421 24002 ft 464 kts 256°
2026-04-22 16:33 26.45124 49.36924 24001 ft 464 kts 256°
2026-04-22 16:33 26.44323 49.33415 24000 ft 464 kts 256°
2026-04-22 16:34 26.43533 49.29959 23997 ft 462 kts 256°
2026-04-22 16:34 26.42737 49.26476 24001 ft 462 kts 256°
2026-04-22 16:34 26.41940 49.22997 24004 ft 462 kts 256°
2026-04-22 16:34 26.41152 49.19560 24002 ft 462 kts 256°
2026-04-22 16:35 26.40350 49.16065 24001 ft 463 kts 256°
2026-04-22 16:35 26.39557 49.12614 24002 ft 463 kts 256°
2026-04-22 16:35 26.38752 49.09119 24001 ft 463 kts 256°
2026-04-22 16:35 26.37960 49.05678 24000 ft 463 kts 256°
2026-04-22 16:36 26.37153 49.02182 24001 ft 462 kts 256°
2026-04-22 16:36 26.36357 48.98735 24001 ft 462 kts 256°
2026-04-22 16:36 26.35552 48.95251 24001 ft 462 kts 256°
2026-04-22 16:36 26.34751 48.91792 24101 ft 465 kts 256°
2026-04-22 16:37 26.33936 48.88276 24485 ft 465 kts 255°
2026-04-22 16:37 26.33134 48.84819 24895 ft 465 kts 255°
2026-04-22 16:37 26.32315 48.81291 24987 ft 471 kts 255°
2026-04-22 16:37 26.31487 48.77732 24990 ft 472 kts 255°
2026-04-22 16:38 26.30670 48.74222 24994 ft 469 kts 255°
2026-04-22 16:38 26.29860 48.70748 24988 ft 466 kts 255°
2026-04-22 16:38 26.29039 48.67229 25006 ft 466 kts 255°
2026-04-22 16:38 26.28229 48.63761 25008 ft 467 kts 255°
2026-04-22 16:39 26.27405 48.60235 25005 ft 468 kts 255°
2026-04-22 16:39 26.26582 48.56718 25003 ft 468 kts 255°
2026-04-22 16:39 26.25758 48.53205 24998 ft 469 kts 255°
2026-04-22 16:39 26.24871 48.49754 25000 ft 469 kts 251°
2026-04-22 16:40 26.23594 48.46400 25016 ft 469 kts 245°
2026-04-22 16:40 26.22181 48.43115 24998 ft 470 kts 244°
2026-04-22 16:40 26.19344 48.36570 24995 ft 469 kts 244°
2026-04-22 16:41 26.17947 48.33278 25003 ft 469 kts 245°
2026-04-22 16:41 26.16579 48.30016 25000 ft 469 kts 245°
2026-04-22 16:41 26.15197 48.26706 25003 ft 469 kts 245°
2026-04-22 16:41 26.13817 48.23405 25002 ft 469 kts 245°
2026-04-22 16:42 26.12448 48.20155 24999 ft 468 kts 244°
2026-04-22 16:42 26.10823 48.17042 24989 ft 468 kts 236°
2026-04-22 16:42 26.08761 48.14213 25001 ft 468 kts 227°
2026-04-22 16:42 26.06522 48.11633 25004 ft 468 kts 226°
2026-04-22 16:43 26.04233 48.09033 25001 ft 468 kts 226°
2026-04-22 16:43 26.01956 48.06437 25000 ft 468 kts 226°
2026-04-22 16:43 25.99710 48.03851 25005 ft 468 kts 226°
2026-04-22 16:43 25.97446 48.01225 25000 ft 468 kts 226°
2026-04-22 16:44 25.95195 47.98600 24997 ft 468 kts 226°
2026-04-22 16:44 25.92975 47.96009 25006 ft 468 kts 226°
2026-04-22 16:44 25.90734 47.93393 25005 ft 468 kts 226°
2026-04-22 16:44 25.88473 47.90758 25000 ft 468 kts 226°
2026-04-22 16:45 25.86216 47.88131 25005 ft 469 kts 226°
2026-04-22 16:45 25.83981 47.85531 25005 ft 469 kts 226°
2026-04-22 16:45 25.81746 47.82932 24993 ft 469 kts 226°
2026-04-22 16:45 25.79480 47.80295 24999 ft 469 kts 226°
2026-04-22 16:46 25.77242 47.77690 24996 ft 469 kts 226°
2026-04-22 16:46 25.74976 47.75053 25005 ft 469 kts 226°
2026-04-22 16:46 25.72745 47.72459 24998 ft 469 kts 226°
2026-04-22 16:46 25.70474 47.69820 25005 ft 469 kts 226°
2026-04-22 16:47 25.68221 47.67204 24999 ft 469 kts 226°
2026-04-22 16:47 25.65986 47.64608 25005 ft 469 kts 226°
2026-04-22 16:47 25.64487 47.62870 25005 ft 469 kts 226°
2026-04-22 16:47 25.61483 47.59383 25005 ft 470 kts 226°
2026-04-22 16:48 25.59211 47.56748 25001 ft 470 kts 226°
2026-04-22 16:48 25.56975 47.54159 25000 ft 470 kts 226°
2026-04-22 16:48 25.54718 47.51545 24999 ft 470 kts 226°
2026-04-22 16:48 25.52443 47.48906 24995 ft 470 kts 226°
2026-04-22 16:49 25.50210 47.46311 24998 ft 470 kts 226°
2026-04-22 16:49 25.47939 47.43677 25006 ft 470 kts 226°
2026-04-22 16:49 25.45709 47.41093 24994 ft 469 kts 227°
2026-04-22 16:49 25.43445 47.38480 25002 ft 469 kts 227°
2026-04-22 16:50 25.41183 47.35876 24996 ft 469 kts 227°
2026-04-22 16:50 25.38924 47.33257 25004 ft 469 kts 225°
2026-04-22 16:50 25.36702 47.30647 25002 ft 469 kts 225°
2026-04-22 16:50 25.34446 47.28027 24998 ft 469 kts 227°
2026-04-22 16:51 25.32170 47.25439 25005 ft 469 kts 228°
2026-04-22 16:51 25.29926 47.22833 24885 ft 461 kts 225°
2026-04-22 16:51 25.27794 47.20299 24378 ft 452 kts 225°
2026-04-22 16:51 25.25604 47.17807 23582 ft 451 kts 229°
2026-04-22 16:52 25.23403 47.15324 22639 ft 453 kts 226°
2026-04-22 16:52 25.21271 47.12775 21882 ft 451 kts 224°
2026-04-22 16:52 25.19125 47.10273 21249 ft 445 kts 228°
2026-04-22 16:52 25.16956 47.07915 20618 ft 439 kts 228°
2026-04-22 16:53 25.14934 47.05401 19920 ft 436 kts 219°
2026-04-22 16:53 25.12568 47.03356 19213 ft 432 kts 231°
2026-04-22 16:53 25.10659 47.00812 18570 ft 427 kts 218°
2026-04-22 16:53 25.08422 46.98769 17905 ft 422 kts 233°
2026-04-22 16:54 25.06534 46.96314 17221 ft 419 kts 216°
2026-04-22 16:54 25.04240 46.94367 16559 ft 415 kts 231°
2026-04-22 16:54 25.02434 46.91914 15917 ft 411 kts 218°
2026-04-22 16:54 25.00166 46.90092 15291 ft 406 kts 228°
2026-04-22 16:55 24.98433 46.87635 14654 ft 403 kts 223°
2026-04-22 16:55 24.96099 46.85945 14049 ft 399 kts 213°
2026-04-22 16:55 24.94214 46.83784 13405 ft 395 kts 231°
2026-04-22 16:55 24.92225 46.81761 13280 ft 384 kts 221°
2026-04-22 16:56 24.90250 46.79835 13293 ft 372 kts 221°
2026-04-22 16:56 24.88377 46.77957 13300 ft 355 kts 222°
2026-04-22 16:56 24.86574 46.76145 13296 ft 348 kts 221°
2026-04-22 16:56 24.84844 46.74239 13352 ft 363 kts 239°
2026-04-22 16:57 24.84078 46.71517 13034 ft 388 kts 270°
2026-04-22 16:57 24.84607 46.68665 13027 ft 373 kts 293°
2026-04-22 16:57 24.85939 46.66258 12689 ft 366 kts 310°
2026-04-22 16:57 24.87817 46.64451 12265 ft 362 kts 328°
2026-04-22 16:58 24.89315 46.63683 12053 ft 354 kts 343°
2026-04-22 16:58 24.92477 46.63527 11695 ft 332 kts 12°
2026-04-22 16:58 24.94570 46.64380 11443 ft 318 kts 30°
2026-04-22 16:58 24.96328 46.65796 11180 ft 306 kts 43°
2026-04-22 16:59 24.97655 46.67566 10907 ft 295 kts 59°
2026-04-22 16:59 24.98789 46.69394 10608 ft 285 kts 40°
2026-04-22 16:59 25.00487 46.70318 10353 ft 272 kts
2026-04-22 16:59 25.02318 46.70121 10117 ft 261 kts 345°
2026-04-22 17:00 25.04057 46.69647 9857 ft 253 kts 346°
2026-04-22 17:00 25.07382 46.68791 9337 ft 240 kts 346°
2026-04-22 17:00 25.08992 46.68385 9070 ft 234 kts 347°
2026-04-22 17:01 25.10571 46.67990 8763 ft 232 kts 347°
2026-04-22 17:01 25.12172 46.67592 8332 ft 237 kts 347°
2026-04-22 17:01 25.13768 46.67197 8008 ft 237 kts 347°
2026-04-22 17:01 25.15378 46.66799 7716 ft 236 kts 347°
2026-04-22 17:02 25.16972 46.66407 7440 ft 232 kts 347°
2026-04-22 17:02 25.18551 46.66018 7032 ft 231 kts 347°
2026-04-22 17:02 25.20102 46.65636 6596 ft 231 kts 347°
2026-04-22 17:02 25.21675 46.65249 6160 ft 231 kts 347°
2026-04-22 17:03 25.23238 46.64865 5799 ft 226 kts 347°
2026-04-22 17:03 25.24693 46.64508 5705 ft 208 kts 347°
2026-04-22 17:03 25.26058 46.64172 5566 ft 194 kts 347°
2026-04-22 17:03 25.27364 46.63851 5247 ft 190 kts 347°
2026-04-22 17:04 25.28219 46.63641 5018 ft 189 kts 347°
2026-04-22 17:04 25.29884 46.63231 4682 ft 181 kts 347°
2026-04-22 17:04 25.31109 46.62930 4363 ft 179 kts 346°
2026-04-22 17:04 25.32196 46.62310 4032 ft 177 kts 308°
2026-04-22 17:05 25.32590 46.61033 4000 ft 180 kts 266°
2026-04-22 17:05 25.32157 46.59775 3997 ft 177 kts 239°
2026-04-22 17:05 25.31537 46.58587 3978 ft 177 kts 240°
2026-04-22 17:05 25.30931 46.57412 3975 ft 177 kts 240°
2026-04-22 17:06 25.30314 46.56226 3974 ft 177 kts 240°
2026-04-22 17:06 25.29697 46.55045 3972 ft 178 kts 239°
2026-04-22 17:06 25.29266 46.54277 3983 ft 178 kts 239°
2026-04-22 17:06 25.28641 46.53082 4484 ft 179 kts 242°
2026-04-22 17:07 25.27854 46.52029 5317 ft 182 kts 209°
2026-04-22 17:07 25.26247 46.52014 5880 ft 183 kts 151°
2026-04-22 17:07 25.25510 46.52495 5962 ft 186 kts 150°
2026-04-22 17:07 25.24398 46.53223 5973 ft 184 kts 150°
2026-04-22 17:08 25.23314 46.53927 5950 ft 176 kts 150°
2026-04-22 17:08 25.22259 46.54606 5975 ft 178 kts 150°
2026-04-22 17:08 25.21178 46.55297 5908 ft 182 kts 150°
2026-04-22 17:08 25.20071 46.56002 5867 ft 184 kts 150°
2026-04-22 17:09 25.18950 46.56716 5870 ft 186 kts 150°
2026-04-22 17:09 25.17841 46.57420 5876 ft 185 kts 150°
2026-04-22 17:09 25.16724 46.58130 5872 ft 185 kts 150°
2026-04-22 17:09 25.15604 46.58842 5877 ft 185 kts 150°
2026-04-22 17:10 25.14485 46.59553 5884 ft 185 kts 150°
2026-04-22 17:10 25.13383 46.60253 5857 ft 183 kts 150°
2026-04-22 17:10 25.12291 46.60947 5560 ft 179 kts 150°
2026-04-22 17:10 25.11210 46.61633 5314 ft 174 kts 150°
2026-04-22 17:11 25.10179 46.62287 5286 ft 171 kts 150°
2026-04-22 17:11 25.09160 46.62934 5277 ft 168 kts 150°
2026-04-22 17:11 25.08135 46.63583 5224 ft 172 kts 150°
2026-04-22 17:11 25.07088 46.64250 4853 ft 173 kts 150°
2026-04-22 17:12 25.06072 46.64899 4505 ft 165 kts 150°
2026-04-22 17:12 25.05089 46.65527 4220 ft 164 kts 150°
2026-04-22 17:12 25.04098 46.66138 3824 ft 161 kts 152°
2026-04-22 17:12 25.03117 46.66730 3347 ft 160 kts 152°
2026-04-22 17:13 25.02171 46.67332 3088 ft 155 kts 150°
2026-04-22 17:13 25.01248 46.67925 2868 ft 155 kts 150°
2026-04-22 17:13 25.00315 46.68524 2658 ft 159 kts 150°
2026-04-22 17:13 24.99342 46.69173 2572 ft 164 kts 148°
2026-04-22 17:14 24.98355 46.69840 2326 ft 166 kts 152°
2026-04-22 17:14 24.97360 46.70416 2072 ft 158 kts 151°
2026-04-22 17:14 24.96507 46.70952 2038 ft 116 kts 150°
2026-04-22 17:14 24.95990 46.71274 2038 ft 54 kts 150°
2026-04-22 17:15 24.95847 46.71360 2034 ft 25 kts 154°
2026-04-22 17:15 24.95559 46.71417 2031 ft 21 kts 196°
2026-04-22 17:15 24.95547 46.71411 2031 ft 0 kts 205°
2026-04-22 17:16 24.95455 46.71317 2032 ft 16 kts 233°
2026-04-22 17:16 24.95452 46.71312 2037 ft 0 kts 236°
2026-04-22 17:18 24.95451 46.71311 2037 ft 1 kts 236°